Hourly Data Report for October 03, 2017

All times are specified in Local Standard Time (LST). Add 1 hour to adjust for Daylight Saving Time where and when it is observed.

VICTORIA UNIVERSITY CS
BRITISH COLUMBIA

48°27'25.200" N
123°18'16.600" W
60.10 m
1018598
71783
WYJ

Download Data

Hourly Data (October 2017)
Hourly Data Report for October 3, 2017
Temp Definition
°C
Dew Point Temp Definition
°C
Rel Hum Definition
%
Wind Dir Definition
10's deg

Wind Spd Definition
km/h
Visibility Definition
km
Stn Press Definition
kPa
Hmdx Definition


Wind Chill Definition


Weather Definition


TIME
00:00 12.2 1.2 47 31 6   101.78     LegendNANA
01:00 11.4 1.6 51 32 7   101.80     LegendNANA
02:00 12.3 2.1 50 35 7   101.82     LegendNANA
03:00 11.8 2.3 52 35 6   101.83     LegendNANA
04:00 12.6 2.0 49 1 11   101.83     LegendNANA
05:00 12.3 1.6 48 1 11   101.87     LegendNANA
06:00 11.9 2.0 51 1 10   101.89     LegendNANA
07:00 11.7 2.8 54 35 9   101.88     LegendNANA
08:00 13.3 2.1 47 1 12   101.93     LegendNANA
09:00 14.2 2.1 44 2 12   101.96     LegendNANA
10:00 15.1 3.6 46 2 11   101.98     LegendNANA
11:00 16.0 1.7 38 1 12   101.96     LegendNANA
12:00 16.6 0.0 32 1 10   101.90     LegendNANA
13:00 17.4 0.7 32 1 8   101.83     LegendNANA
14:00 17.8 1.4 33 1 12   101.76     LegendNANA
15:00 17.6 1.0 33 1 11   101.71     LegendNANA
16:00 17.3 1.5 35 1 6   101.66     LegendNANA
17:00 15.4 4.5 48 36 5   101.63     LegendNANA
18:00 12.3 4.5 59 31 4   101.60     LegendNANA
19:00 10.8 4.7 66 31 6   101.60     LegendNANA
20:00 8.7 4.3 74 24 3   101.61     LegendNANA
21:00 8.9 3.5 69 27 2   101.59     LegendNANA
22:00 7.3 3.2 75 0 1   101.58     LegendNANA
23:00 7.0 3.0 76   0   101.58     LegendNANA

Notes on Data Quality.

Legend

  • E = Estimated
  • M = Missing
  • NA = Not Available
  • ‡ = Partner data that is not subject to review by the National Climate Archives
Date modified: